Powrót do katalogu

STARLINK-30301

AktywnyŁącznośćVLEO
NORAD 57666·PAYLOAD·🇺🇸 United States

Wystrzelony Aug 22, 2023 z Vandenberg Space Force Base

Loading…

Następne Przeloty (najbliższe 24 godziny)

TLE

ŚwieżeSource: CelesTrak SupGP

Epoka: Sep 15, 2026, 01:58 UTC

1 57666C 23124D   26258.08243056  .00066315  00000+0  19815-2 0  2587
2 57666  53.1577 105.6598 0000940 140.7274 287.8734 15.34002984    18

Śledź STARLINK-30301 w czasie rzeczywistym z AllMySat

Download on the App Store